TimeCST,TemperatureF,Dew PointF,Humidity,Sea Level PressureIn,VisibilityMPH,Wind Direction,Wind SpeedMPH,Gust SpeedMPH,PrecipitationIn,Events,Conditions,WindDirDegrees,DateUTC
12:15 AM,23.0,15.8,74,29.60,10.0,SSW,16.1,-,N/A,,Mostly Cloudy,210,2014-01-16 06:15:00
12:35 AM,23.0,15.8,74,29.58,10.0,SSW,18.4,-,N/A,,Mostly Cloudy,210,2014-01-16 06:35:00
12:55 AM,24.8,17.6,74,29.58,10.0,SSW,16.1,-,N/A,,Mostly Cloudy,210,2014-01-16 06:55:00
1:15 AM,23.0,17.6,80,29.56,10.0,SSW,16.1,-,N/A,,Mostly Cloudy,210,2014-01-16 07:15:00
1:35 AM,24.8,17.6,74,29.56,10.0,SW,18.4,-,N/A,,Mostly Cloudy,220,2014-01-16 07:35:00
1:55 AM,24.8,19.4,80,29.55,10.0,SW,16.1,-,N/A,,Mostly Cloudy,220,2014-01-16 07:55:00
2:15 AM,24.8,19.4,80,29.55,10.0,SSW,12.7,-,N/A,,Scattered Clouds,210,2014-01-16 08:15:00
2:35 AM,23.0,19.4,86,29.54,10.0,SSW,12.7,-,N/A,,Clear,210,2014-01-16 08:35:00
2:55 AM,23.0,19.4,86,29.53,10.0,SSW,10.4,-,N/A,,Clear,210,2014-01-16 08:55:00
3:15 AM,21.2,17.6,86,29.52,10.0,SSW,10.4,-,N/A,,Clear,210,2014-01-16 09:15:00
3:35 AM,23.0,19.4,86,29.51,10.0,SSW,10.4,-,N/A,,Clear,200,2014-01-16 09:35:00
3:55 AM,23.0,19.4,86,29.50,10.0,SSW,9.2,-,N/A,,Clear,210,2014-01-16 09:55:00
4:15 AM,23.0,19.4,86,29.49,10.0,SSW,10.4,-,N/A,,Mostly Cloudy,210,2014-01-16 10:15:00
4:35 AM,24.8,21.2,86,29.49,10.0,SSW,8.1,-,N/A,,Overcast,210,2014-01-16 10:35:00
4:55 AM,24.8,23.0,93,29.48,10.0,SW,11.5,-,N/A,,Overcast,230,2014-01-16 10:55:00
5:15 AM,28.4,24.8,86,29.48,10.0,WSW,10.4,-,N/A,,Overcast,240,2014-01-16 11:15:00
5:35 AM,30.2,24.8,80,29.47,10.0,WSW,11.5,-,N/A,,Overcast,250,2014-01-16 11:35:00
5:55 AM,30.2,24.8,80,29.47,10.0,WSW,11.5,-,N/A,,Overcast,250,2014-01-16 11:55:00
6:15 AM,30.2,26.6,86,29.47,10.0,WSW,12.7,-,N/A,,Overcast,250,2014-01-16 12:15:00
6:35 AM,30.2,26.6,86,29.47,10.0,WSW,12.7,19.6,N/A,,Overcast,250,2014-01-16 12:35:00
6:55 AM,30.2,26.6,86,29.47,10.0,WSW,13.8,-,N/A,,Overcast,250,2014-01-16 12:55:00
7:15 AM,30.2,26.6,86,29.47,10.0,WSW,12.7,-,N/A,,Overcast,250,2014-01-16 13:15:00
7:35 AM,32.0,28.4,87,29.47,-9999.0,West,12.7,-,N/A,Snow,Light Snow,260,2014-01-16 13:35:00
7:55 AM,32.0,28.4,87,29.47,10.0,WSW,13.8,-,N/A,,Overcast,250,2014-01-16 13:55:00
8:15 AM,32.0,28.4,87,29.47,10.0,West,17.3,-,N/A,,Overcast,260,2014-01-16 14:15:00
8:35 AM,32.0,32.0,100,29.47,1.8,West,16.1,24.2,N/A,Snow,Light Snow,270,2014-01-16 14:35:00
8:55 AM,32.0,32.0,100,29.47,9.0,West,17.3,-,N/A,Snow,Light Snow,270,2014-01-16 14:55:00
9:15 AM,33.8,32.0,93,29.47,9.0,West,18.4,25.3,N/A,Snow,Light Snow,270,2014-01-16 15:15:00
9:35 AM,33.8,32.0,93,29.47,9.0,West,21.9,28.8,N/A,,Overcast,280,2014-01-16 15:35:00
9:55 AM,33.8,32.0,93,29.48,9.0,WNW,20.7,27.6,N/A,,Overcast,290,2014-01-16 15:55:00
10:15 AM,32.0,32.0,100,29.49,2.5,WNW,27.6,35.7,N/A,Snow,Light Snow,290,2014-01-16 16:15:00
10:35 AM,30.2,30.2,100,29.50,0.5,NW,29.9,42.6,N/A,Snow,Light Snow,310,2014-01-16 16:35:00
10:55 AM,28.4,26.6,93,29.51,0.8,NW,31.1,42.6,N/A,Snow,Light Snow,310,2014-01-16 16:55:00
11:15 AM,28.4,24.8,86,29.52,1.2,NW,33.4,44.9,N/A,Snow,Light Snow,310,2014-01-16 17:15:00
11:35 AM,28.4,23.0,80,29.53,8.0,NW,26.5,40.3,N/A,,Mostly Cloudy,310,2014-01-16 17:35:00
11:55 AM,28.4,23.0,80,29.53,10.0,NW,25.3,36.8,N/A,,Mostly Cloudy,310,2014-01-16 17:55:00
12:15 PM,28.4,21.2,74,29.53,10.0,NW,25.3,32.2,N/A,,Scattered Clouds,310,2014-01-16 18:15:00
12:35 PM,26.6,17.6,69,29.54,10.0,NW,26.5,38.0,N/A,,Mostly Cloudy,310,2014-01-16 18:35:00
12:55 PM,26.6,17.6,69,29.55,10.0,NW,28.8,36.8,N/A,,Mostly Cloudy,310,2014-01-16 18:55:00
1:15 PM,24.8,14.0,64,29.56,2.5,NW,39.1,49.5,N/A,,Freezing Rain,320,2014-01-16 19:15:00
1:35 PM,24.8,14.0,64,29.57,4.0,NW,28.8,40.3,N/A,,Freezing Rain,320,2014-01-16 19:35:00
1:55 PM,24.8,14.0,64,29.57,9.0,NW,32.2,40.3,N/A,,Overcast,310,2014-01-16 19:55:00
2:00 PM,24.8,14.0,64,29.57,9.0,NW,32.2,40.3,N/A,,Mostly Cloudy,310,2014-01-16 20:00:00
2:15 PM,24.8,14.0,64,29.58,10.0,NW,25.3,34.5,N/A,,Mostly Cloudy,310,2014-01-16 20:15:00
2:35 PM,23.0,17.6,80,29.59,7.0,NW,26.5,35.7,N/A,Snow,Light Snow,310,2014-01-16 20:35:00
2:55 PM,23.0,15.8,74,29.59,10.0,WNW,19.6,31.1,N/A,,Overcast,300,2014-01-16 20:55:00
3:15 PM,23.0,15.8,74,29.60,10.0,WNW,20.7,27.6,N/A,,Overcast,300,2014-01-16 21:15:00
3:35 PM,21.2,10.4,63,29.61,10.0,WNW,29.9,36.8,N/A,,Overcast,300,2014-01-16 21:35:00
3:55 PM,19.4,8.6,63,29.62,10.0,NW,34.5,-,N/A,,Overcast,310,2014-01-16 21:55:00
4:15 PM,17.6,6.8,63,29.64,10.0,NW,27.6,39.1,N/A,,Overcast,310,2014-01-16 22:15:00
4:35 PM,15.8,6.8,68,29.66,10.0,NW,28.8,35.7,N/A,,Overcast,310,2014-01-16 22:35:00
4:55 PM,14.0,6.8,73,29.68,9.0,NW,26.5,33.4,N/A,,Mostly Cloudy,320,2014-01-16 22:55:00
5:15 PM,12.2,3.2,67,29.69,10.0,NW,28.8,35.7,N/A,,Overcast,320,2014-01-16 23:15:00
5:35 PM,10.4,5.0,79,29.71,10.0,NW,29.9,-,N/A,,Overcast,320,2014-01-16 23:35:00
5:55 PM,10.4,1.4,67,29.71,9.0,NNW,27.6,39.1,N/A,,Mostly Cloudy,330,2014-01-16 23:55:00
6:15 PM,8.6,1.4,73,29.71,10.0,NW,33.4,39.1,N/A,,Mostly Cloudy,320,2014-01-17 00:15:00
6:35 PM,8.6,1.4,73,29.73,10.0,NW,26.5,38.0,N/A,,Overcast,320,2014-01-17 00:35:00
6:55 PM,8.6,1.4,73,29.75,10.0,NW,21.9,31.1,N/A,,Overcast,320,2014-01-17 00:55:00
7:15 PM,8.6,3.2,79,29.75,8.0,NW,25.3,31.1,N/A,,Overcast,320,2014-01-17 01:15:00
7:35 PM,8.6,1.4,73,29.76,9.0,NW,23.0,31.1,N/A,,Overcast,320,2014-01-17 01:35:00
7:55 PM,8.6,3.2,79,29.77,5.0,NW,24.2,31.1,N/A,Snow,Light Snow,320,2014-01-17 01:55:00
8:15 PM,6.8,-0.4,72,29.78,10.0,NNW,27.6,35.7,N/A,,Overcast,330,2014-01-17 02:15:00
8:35 PM,6.8,-0.4,72,29.78,10.0,NW,27.6,34.5,N/A,,Overcast,320,2014-01-17 02:35:00
8:55 PM,6.8,-0.4,72,29.79,10.0,NW,26.5,34.5,N/A,,Overcast,320,2014-01-17 02:55:00
9:15 PM,6.8,1.4,79,29.80,8.0,NW,21.9,31.1,N/A,,Overcast,310,2014-01-17 03:15:00
9:35 PM,5.0,-0.4,78,29.80,10.0,NW,26.5,-,N/A,,Overcast,320,2014-01-17 03:35:00
9:55 PM,5.0,-2.2,72,29.81,10.0,NW,29.9,-,N/A,,Overcast,320,2014-01-17 03:55:00
10:15 PM,5.0,-2.2,72,29.81,10.0,NW,27.6,-,N/A,,Overcast,320,2014-01-17 04:15:00
10:35 PM,5.0,-2.2,72,29.82,10.0,NW,25.3,-,N/A,,Overcast,310,2014-01-17 04:35:00
10:55 PM,3.2,-4.0,72,29.83,10.0,NW,21.9,27.6,N/A,,Overcast,310,2014-01-17 04:55:00
11:15 PM,3.2,-4.0,72,29.83,10.0,NW,19.6,-,N/A,,Overcast,310,2014-01-17 05:15:00
11:35 PM,3.2,-4.0,72,29.83,10.0,NW,18.4,-,N/A,,Overcast,310,2014-01-17 05:35:00
11:55 PM,3.2,-4.0,72,29.83,10.0,NW,17.3,24.2,N/A,,Overcast,310,2014-01-17 05:55:00